Terug naar catalogus

AL-AMAL

HOPE

ActiefWetenschapVLEO
NORAD 45918·PAYLOAD·🇦🇪 UAE

Gelanceerd Jul 19, 2020 vanaf Tanegashima Space Center

Loading…

Volgende Passages (komende 24 uur)

TLE

VerouderdSource: Space-Track

Epoch: Jul 19, 2020, 22:09 UTC

1 45918U 20047A   20201.92332176 +.00001484 -46927-5 +00000-0 0  9999
2 45918 030.3470 309.5833 0007500 293.9000 179.9000 16.12219793000009

Volg AL-AMAL in realtime met AllMySat

Download on the App Store